Terminal Aerodrome Forecast
Issued by NWS Spokane, WA

Home | Current Version | Previous Version | Text Only | Print | Product List | Glossary On
Versions: 1 2 3 4 5 6 7 8 9 10 11 12 13 14 15 16 17 18 19 20 21 22 23 24 25 26 27 28 29 30 31 32 33 34
000
FTUS46 KOTX 271139
TAFGEG
TAF
KGEG 271139Z 2712/2812 06005KT 1SM BR OVC001
     FM271630 08006KT 5SM BR SCT003 SCT200
     FM271700 12007KT P6SM SCT150
     FM271900 20009G16KT P6SM SCT200
     FM280200 20009KT P6SM FEW080 SCT120 BKN200
     FM280600 22018G26KT P6SM -SHRA SCT030 OVC040=

USA.gov is the U.S. government's official web portal to all federal, state and local government web resources and services.